Flag for U.S.A. Weather past 2 weeks in Juneau, Alaska, U.S.A.

Now
54 °F

Light rain. More clouds than sun.


Feels Like: 51 °F
Forecast: 50 / 55 °F
Wind: 10 mph from Northeast

Location: Juneau International Airport

Current Time: Sep 19, 2014 at 6:36:38 PM

Latest Report: Sep 19, 2014 at 5:53 PM


Visibility: 8 mi

Pressure: 29.85 "Hg

Humidity: 90%

Dew point: 51 °F

Location of JuneauLocation

Historic Weather in Juneau — Graph

°F

Juneau temperature yesterday

Maximum temperature yesterday: 55 °F (at 10:53 AM)
Minimum temperature yesterday: 50 °F (at 6:53 AM)
Average temperature yesterday: 53 °F

Past Weeks' High & Low Weather Summary

 TemperatureHumidityPressure
High63 °F (Sep 13, 2:53 PM)100% (Sep 6, 10:53 PM)30.36 "Hg (Sep 6, 10:53 PM)
Low36 °F (Sep 9, 6:53 AM)42% (Sep 8, 12:53 PM)29.18 "Hg (Sep 18, 6:53 PM)
Average52 °F88%29.99 "Hg
* Reported Sep 4 4:53 PM — Sep 19 4:53 PM, Juneau, Weather by CustomWeather, © 2014

Note: Actual official high and low records may vary slightly from our data, if they occured in-between our weather recording intervals... More about our weather records

Advertising

Juneau weather history for previous 24 hours

 ConditionsComfort  
Time TempWeatherWind HumidityBarometerVisibility
4:53 PM
Sep 19
55 °FLight rain. More clouds than sun.12 mph87%29.85 "Hg10 mi
3:53 PM55 °FMostly cloudy.10 mph93%29.83 "Hg10 mi
2:53 PM56 °FMore clouds than sun.15 mph87%29.81 "Hg10 mi
1:53 PM56 °FLight rain. Partly sunny.14 mph87%29.79 "Hg10 mi
12:53 PM54 °FLight rain. Mostly cloudy.16 mph90%29.75 "Hg10 mi
11:53 AM53 °FLight rain. Mostly cloudy.12 mph93%29.72 "Hg10 mi
10:53 AM53 °FMostly cloudy.14 mph93%29.67 "Hg10 mi
9:53 AM53 °FMostly cloudy.9 mph89%29.63 "Hg10 mi
8:53 AM52 °FMostly cloudy.15 mph93%29.60 "Hg10 mi
7:53 AM52 °FLight rain. Mostly cloudy.10 mph93%29.55 "Hg10 mi
6:53 AM52 °FLight rain. Mostly cloudy.14 mph93%29.52 "Hg9 mi
5:53 AM53 °FLight rain. Mostly cloudy.10 mph89%29.47 "Hg10 mi
4:53 AM53 °FLight rain. Mostly cloudy.16 mph89%29.42 "Hg8 mi
3:53 AM53 °FRain. Fog.23 mph89%29.37 "Hg4 mi
2:53 AM53 °FLight rain. Fog.30 mph89%29.31 "Hg6 mi
1:53 AM53 °FHeavy rain. Fog.30 mph89%29.28 "Hg4 mi
12:53 AM54 °FRain. Fog.29 mph86%29.28 "Hg6 mi
11:53 PM
Sep 18
53 °FLight rain. Mostly cloudy.28 mph89%29.27 "Hg7 mi
10:53 PM53 °FLight rain. Fog.25 mph89%29.25 "Hg6 mi
9:53 PM53 °FLight rain. Fog.20 mph89%29.23 "Hg5 mi
8:53 PM53 °FLight rain. Fog.21 mph93%29.23 "Hg5 mi
7:53 PM52 °FLight rain. Mostly cloudy.14 mph97%29.20 "Hg10 mi
6:53 PM53 °FLight rain. Mostly cloudy.15 mph93%29.18 "Hg7 mi
Weather by CustomWeather, © 2014

See weather overviewHow to use our weather pages